Regional Weather Roundup
Issued by NWS Wakefield, VA

Home | Current Version | Previous Version | Text Only | Print | Product List | Glossary On
Versions: 1 2 3 4 5 6 7 8 9 10 11 12 13 14 15 16 17 18 19 20 21 22 23 24 25 26 27 28 29 30 31 32 33 34 35 36 37 38 39 40 41 42 43 44 45 46 47 48 49 50
846
ASUS41 KAKQ 191015
RWRAKQ

REGIONAL WEATHER ROUNDUP
NATIONAL WEATHER SERVICE WAKEFIELD VA
500 AM EST THU JAN 19 2017

Note: "fair" indicates few or no clouds below 12,000 feet with no
significant weather and/or obstructions to visibility. * = Denotes
station may not report precipitation (e.g., rain,snow,etc.),
thunder or fog.

VAZ042-051-052>054-056-191100-
NORTHERN VIRGINIA

CITY           SKY/WX    TMP DP  RH WIND       PRES   REMARKS
WASH NATIONAL  CLOUDY    43  36  76 NW9       30.08S
DULLES         CLOUDY    45  34  65 N8        30.07S
FORT BELVOIR   CLOUDY    37  33  85 CALM      30.07S
QUANTICO       MOCLDY    38  36  92 N5        30.09S
FREDERICKSBRG* MOCLDY    35  35 100 CALM      30.08S
STAFFORD*      CLOUDY    32  32 100 CALM      30.12S
WARRENTON      MOCLDY    30  27  89 CALM      30.07F
CULPEPER*      CLOUDY    30  30  98 CALM      30.09S
MANASSAS*      NOT AVBL
LEESBURG*      CLOUDY    46  39  76 N3        30.07F
WINCHESTER     CLOUDY    41  34  75 W3        30.06F
FRONT ROYAL*   PTSUNNY   36  34  93 CALM      30.06F
LURAY*         FAIR      32  32 100 CALM      30.07S
$$

VAZ048-049-060>072-079>083-191100-
CENTRAL AND SOUTH CENTRAL VIRGINIA

CITY           SKY/WX    TMP DP  RH WIND       PRES   REMARKS
RICHMOND       CLOUDY    39  35  86 N6        30.07F
CHESTERFIELD*  FAIR      39  21  48 CALM      30.08S
PETERSBURG*    CLOUDY    34  32  93 CALM      30.08S
HANOVER        CLOUDY    38  33  82 VRB3      30.08F
TAPPAHANNOCK*  CLOUDY    36  34  92 CALM      30.09R
QUINTON*       FAIR      39  36  88 CALM      30.07S
CHARLOTTSVILLE CLOUDY    37  34  89 CALM      30.06F
GORDONSVILLE*  FAIR      30  30 100 CALM      30.06F
ORANGE*          N/A     32  32 100 CALM      30.09S
LOUISA*        CLOUDY    34  32  93 CALM      30.05F FOG
BUMPASS*       FAIR      35  35  99 NW3       30.07F
FARMVILLE*     CLOUDY    34  34  99 CALM      30.09R
CREWE*         FAIR      36  36 100 CALM      30.08R
FORT PICKETT*  FAIR      36  33  88 CALM      30.09R
CHASE CITY*    FAIR      36  35  94 CALM      30.09R
CLARKSVILLE*   FAIR      37  36  93 NW3       30.08R
SOUTH HILL*    CLOUDY    38  35  90 CALM      30.14R
LAWRENCEVILLE* FAIR      39  35  85 CALM      30.09R
EMPORIA*       CLOUDY    37  34  87 SW3       30.11R
$$

VAZ088>098-191100-
SOUTHEAST VIRGINIA

CITY           SKY/WX    TMP DP  RH WIND       PRES   REMARKS
NORFOLK        PTCLDY    43  37  79 N7        30.06S
VIRGINIA BEACH MOCLDY    37  35  92 N7        30.05S
NORFOLK NAVAL  CLOUDY    41  36  82 N5        30.07F
WEST POINT*    CLOUDY    33  32  96 CALM      30.09S
SALUDA*        FAIR      39  37  91 NW3       30.07S
NEWPORT NEWS   CLOUDY    41  36  82 N7        30.06F
LANGLEY AFB    CLOUDY    42  37  80 N7        30.06S
FORT EUSTIS    CLOUDY    42  35  77 N6        30.04F
WILLIAMSBURG*  PTCLDY    41  36  81 CALM      30.07F
HR EXEC AP*    FAIR      32  28  86 CALM      30.06S
FRANKLIN*      CLOUDY    39  36  89 N5        30.07S
US460-WAKEFLD  CLOUDY    36  35  96 CALM      30.07F
$$

VAZ020-022-025-037-045-191100-
WEST CENTRAL AND SOUTHWEST VIRGINIA

CITY           SKY/WX    TMP DP  RH WIND       PRES   REMARKS
STAUNTON*      CLOUDY    29  29  97 CALM      30.09R
WAYNESBORO*    FAIR      38  34  84 W3        30.06S
HOT SPRINGS VA FOG       34  34 100 W9        30.00F VSB 1/4
LYNCHBURG      PTCLDY    33  32  96 CALM      30.08F
DANVILLE       CLOUDY    35  34  96 CALM      30.07F
SOUTH BOSTON*  FAIR      35  33  94 CALM      30.09S
MARTINSVILLE   CLOUDY    32  31  96 CALM      30.09S
ROANOKE        CLOUDY    40  35  83 N6        30.09F
BLACKSBURG     CLOUDY    35  35  98 CALM      30.10S
DUBLIN*        CLOUDY    33  32  96 CALM      30.09S
MARION*        CLOUDY    38  37  97 CALM      30.08F
HILLSVILLE*    CLOUDY    42  36  77 CALM      30.04F
RICHLANDS*     FAIR     N/A N/A N/A W3        30.07S
WISE*          MOCLDY    39  39 100 W5        30.08S
ABINGDON*      CLOUDY    39  38  95 CALM      30.08S
$$

MDZ021>025-VAZ099-100-191100-
SOUTHERN MARYLAND AND THE DELMARVA PENINSULA

CITY           SKY/WX    TMP DP  RH WIND       PRES   REMARKS
PATUXENT RIVER PTCLDY    43  37  79 NW8       30.06S
BAY BRIDGE APT CLOUDY    45  36  70 NW5       30.07S
LEONARDTOWN    PTCLDY    41  34  75 CALM      30.08S
DOVER          NOT AVBL
GEORGETOWN     CLOUDY    46  40  79 CALM      30.06S
EASTON         CLOUDY    46  37  70 N5        30.10F
CAMBRIDGE      CLOUDY    43  36  75 NW6       30.06S
SALISBURY      CLOUDY    45  39  79 N7        30.06R
OCEAN CITY     CLOUDY    42  41  96 NW3       30.06R
WALLOPS ISLAND CLOUDY    43  41  93 N3        30.05F
ACCOMACK*      CLOUDY    43  38  83 N3        30.05S
$$

NCZ012>017-030>032-191100-
NORTH CENTRAL AND EASTERN NORTH CAROLINA

CITY           SKY/WX    TMP DP  RH WIND       PRES   REMARKS
ROANOKE RAPIDS FAIR      37  36  93 N3        30.09R
RALEIGH        PTCLDY    39  35  86 CALM      30.07R
ELIZABETH CITY CLOUDY    43  40  89 N9        30.06R
AHOSKIE*         N/A     40  37  90 CALM      30.09R
EDENTON*       CLOUDY    44  40  88 N5        30.06R
CURRITUCK*     CLOUDY    42  42 100 N5        30.06S
KILL DEVIL HLS NOT AVBL
MANTEO         CLOUDY    44  44 100 N5        30.05S
CAPE HATTERAS  CLEAR     48  44  86 VRB6      30.03S
TARBORO*       NOT AVBL
GOLDSBORO      CLEAR     40  39  99 CALM      30.06R
WASHINGTON     PTCLDY    37  36  99 N5          N/A
GREENVILLE     SNOW      36  36 100 CALM      30.08S VSB 1/4
NEW BERN       FOG       39  38  96 CALM      30.06S VSB 1/2
WILMINGTON     CLEAR     41  41 100 N3        30.05R
$$

VAZ048-191100-
ELSEWHERE

CITY           SKY/WX    TMP DP  RH WIND       PRES   REMARKS
HARRISBURG PA  CLOUDY    40  36  86 NW5       30.05S
BALTIMORE      CLOUDY    44  36  73 NW9       30.07S
ANNAPOLIS      CLOUDY    46  36  68 NW5       30.06F
ANDREWS AFB    CLOUDY    42  34  74 NW6       30.06S
PHILADELPHIA   CLOUDY    45  37  73 NW5       30.06S
HENDERSON NC   CLEAR     36  33  89 CALM      30.08R
GREENSBORO     CLEAR     38  34  85 CALM      30.05F
ROCKY MOUNT    CLEAR     36  36 100 CALM      30.09R
$$

VAZ100-191100-
MARINE

STATION/POSITION TIME  TEMP    WIND        PRES    WAVE   SWELL
                       AIR SEA DIR/SP/G            HT/PER HT/PER
                 (UTC) (F)     (DEG/KT/KT) (MB)    (FT/S) (FT/S)
CAPE MAY NJ      0942   40 41   10/  2/  3 1017.4R
LEWES DE         0942   43 41  310/  4/  4 1017.6R
OCEAN-CITY-INLET 0942   43 43   20/  3/  3 1018.2R
WACHAPREAGUE VA  0948   43 47  310/  1/  4 1017.6S
THOMAS POINT MD  1000   45 39  320/  6/  6   N/A
GOOSES REEF MD   0950   43     330/  6/  8 1018.8F
COVE POINT MD    0942   44     350/ 14/ 15 1018.6F
SOLOMONS ISLAND  0942   44 41  320/  4/  6   N/A
BISHOPS HEAD MD  0942   44 45  340/  5/  8 1018.0F
PINEY POINT MD   0948          330/  7/  8   N/A
POTOMAC MD       0950   41     310/  2/  4 1017.1F
CAMBRIDGE MD     0942   44 40  330/  5/  6 1017.4F
LEWISETTA VA     0948   43 43  340/  6/  9 1017.8S
RAPPAHANNOCK LGT 0948          320/  9/  9 1018.4R
STINGRAY PT      0950   42     320/  6/  8 1018.4R
YORK RVR RNG VA  0948   43     340/  9/ 10 1017.4R
YORKTOWN VA      0948   43 43  330/  7/  8 1017.8F
JAMESTOWN VA     0950   42     330/  4/  4   N/A
DOMINION TERM VA 0948   43     360/  6/  8 1018.1F
KIPTOPEKE VA     0942      43  350/  7/  8   N/A
CHES BAY BRIDGE  0948   43 45  340/ 10/ 11 1017.9R
CAPE HENRY VA    0948   43     320/  8/ 10   N/A
WILLOUBY STN VA  0948   43     350/  7/  8 1018.9S
S CRANEY ISL VA  0948   42     350/  4/  5 1017.9S
CAPE HENRY BUOY  0942      48                N/A     3/ 7
OFFSHORE WE BUOY 0951      49                N/A     4/ 7
64NM E OF VA BCH 0950   50 57   10/ 21/ 25 1016.2R   6/ 7   3/ 7
DUCK PIER NC     0948   45 45  330/  9/ 10 1016.9R
44100 DUCK FRF   0905      47                N/A     4/ 6
44056 DUCK FRF   0930      45                N/A     4/ 7
OREGON INLET NC  0942   44 50  320/  4/  5 1017.4R
HATTERAS NC      0948   48 55   10/ 13/ 15 1016.2F
DIAMOND SHLS NC  0950   52 75   10/ 17/ 21 1016.4F   5/ 7   3/ 8
CAPE LOOKOUT NC  0900   50     360/  8/  9 1016.3R
$$




USA.gov is the U.S. government's official web portal to all federal, state and local government web resources and services.